EN

Hourly Weather Acarigua

Today, 29 November, Sunday

Time Temperature Precipitation Wind Pressure Humidity
00:00 +24°C° 0.4 mm 1 mps 741 mmHg 93%
01:00 +24°C° 0.4 mm 1 mps 740 mmHg 93%
02:00 +22°C° 1.2 mm 0 mps 740 mmHg 94%
03:00 +22°C° 1.2 mm 0 mps 740 mmHg 95%
04:00 +21°C° 1.2 mm 0 mps 740 mmHg 96%
05:00 +22°C° 1.6 mm 0 mps 740 mmHg 96%
06:00 +22°C° 1.6 mm 0 mps 741 mmHg 96%
07:00 +22°C° 1.6 mm 0 mps 741 mmHg 97%
08:00 +23°C° 0.4 mm 0 mps 742 mmHg 95%
09:00 +24°C° 0.4 mm 0 mps 742 mmHg 93%
10:00 +27°C° 0.4 mm 1 mps 742 mmHg 91%
11:00 +28°C° 0.1 mm 1 mps 741 mmHg 84%
12:00 +30°C° 0.1 mm 1 mps 740 mmHg 78%
13:00 +31°C° 0.1 mm 1 mps 740 mmHg 71%
14:00 +31°C° 0.2 mm 1 mps 739 mmHg 75%
15:00 +30°C° 0.2 mm 1 mps 739 mmHg 78%
16:00 +28°C° 0.2 mm 0 mps 739 mmHg 81%
17:00 +26°C° 0.5 mm 0 mps 739 mmHg 85%
18:00 +27°C° 0.5 mm 1 mps 739 mmHg 90%
19:00 +26°C° 0.5 mm 1 mps 740 mmHg 94%
20:00 +25°C° 0 mm 1 mps 740 mmHg 93%
21:00 +25°C° 0 mm 1 mps 741 mmHg 92%
22:00 +25°C° 0 mm 1 mps 741 mmHg 91%
23:00 +25°C° 0 mm 1 mps 741 mmHg 92%

Tomorrow, 30 November, Monday

Time Temperature Precipitation Wind Pressure Humidity
00:00 +25°C° 0 mm 1 mps 740 mmHg 92%
01:00 +24°C° 0 mm 1 mps 740 mmHg 92%
02:00 +24°C° 0 mm 1 mps 740 mmHg 92%
03:00 +24°C° 0 mm 1 mps 740 mmHg 92%
04:00 +24°C° 0 mm 1 mps 740 mmHg 92%
05:00 +25°C° 0 mm 1 mps 740 mmHg 90%
06:00 +26°C° 0 mm 1 mps 741 mmHg 88%
07:00 +26°C° 0 mm 1 mps 741 mmHg 86%
08:00 +28°C° 0.1 mm 1 mps 741 mmHg 79%
09:00 +30°C° 0.1 mm 1 mps 742 mmHg 72%
10:00 +32°C° 0.1 mm 1 mps 742 mmHg 65%
11:00 +32°C° 0.1 mm 1 mps 741 mmHg 66%
12:00 +32°C° 0.1 mm 1 mps 740 mmHg 66%
13:00 +32°C° 0.1 mm 2 mps 738 mmHg 66%
14:00 +31°C° 0 mm 1 mps 738 mmHg 70%
15:00 +31°C° 0 mm 1 mps 738 mmHg 74%
16:00 +30°C° 0 mm 1 mps 737 mmHg 77%
17:00 +29°C° 0 mm 1 mps 738 mmHg 81%
18:00 +27°C° 0 mm 1 mps 739 mmHg 84%
19:00 +24°C° 0 mm 0 mps 739 mmHg 88%
20:00 +26°C° 0 mm 1 mps 739 mmHg 88%
21:00 +26°C° 0 mm 1 mps 740 mmHg 87%
22:00 +25°C° 0 mm 1 mps 740 mmHg 87%
23:00 +25°C° 0.3 mm 1 mps 740 mmHg 89%

Day after tomorrow, 1 December, Tuesday

Time Temperature Precipitation Wind Pressure Humidity
00:00 +25°C° 0.3 mm 1 mps 739 mmHg 91%
01:00 +24°C° 0.3 mm 1 mps 739 mmHg 93%
02:00 +24°C° 0.4 mm 1 mps 739 mmHg 93%
03:00 +24°C° 0.4 mm 1 mps 739 mmHg 93%
04:00 +24°C° 0.4 mm 1 mps 739 mmHg 93%
05:00 +25°C° 0 mm 1 mps 739 mmHg 92%
06:00 +25°C° 0 mm 1 mps 740 mmHg 90%
07:00 +26°C° 0 mm 1 mps 741 mmHg 89%
08:00 +27°C° 0.5 mm 1 mps 741 mmHg 85%
09:00 +29°C° 0.5 mm 1 mps 741 mmHg 80%
10:00 +30°C° 0.5 mm 1 mps 741 mmHg 76%
11:00 +30°C° 0.6 mm 1 mps 740 mmHg 76%
12:00 +30°C° 0.6 mm 1 mps 739 mmHg 75%
13:00 +30°C° 0.6 mm 1 mps 738 mmHg 75%
14:00 +30°C° 0.1 mm 1 mps 738 mmHg 77%
15:00 +30°C° 0.1 mm 1 mps 737 mmHg 80%
16:00 +29°C° 0.1 mm 1 mps 737 mmHg 82%
17:00 +28°C° 0 mm 1 mps 738 mmHg 86%
18:00 +27°C° 0 mm 1 mps 738 mmHg 89%
19:00 +26°C° 0 mm 1 mps 739 mmHg 93%
20:00 +26°C° 0 mm 1 mps 739 mmHg 93%
21:00 +25°C° 0 mm 1 mps 739 mmHg 92%
22:00 +25°C° 0 mm 1 mps 740 mmHg 92%
23:00 +25°C° 0.2 mm 1 mps 740 mmHg 92%

2 December, Wednesday

Time Temperature Precipitation Wind Pressure Humidity
00:00 +25°C° 0.2 mm 1 mps 739 mmHg 92%
01:00 +24°C° 0.2 mm 1 mps 739 mmHg 92%
02:00 +24°C° 0.1 mm 1 mps 739 mmHg 92%
03:00 +24°C° 0.1 mm 1 mps 739 mmHg 92%
04:00 +24°C° 0.1 mm 1 mps 739 mmHg 92%
05:00 +25°C° 0 mm 1 mps 740 mmHg 90%
06:00 +25°C° 0 mm 1 mps 740 mmHg 89%
07:00 +26°C° 0 mm 1 mps 741 mmHg 87%
08:00 +27°C° 0.3 mm 1 mps 741 mmHg 82%
09:00 +29°C° 0.3 mm 1 mps 741 mmHg 77%
10:00 +30°C° 0.3 mm 1 mps 741 mmHg 73%
11:00 +31°C° 0.2 mm 1 mps 741 mmHg 69%
12:00 +31°C° 0.2 mm 1 mps 740 mmHg 66%
13:00 +32°C° 0.2 mm 1 mps 739 mmHg 63%
14:00 +31°C° 0.2 mm 1 mps 739 mmHg 69%
15:00 +31°C° 0.2 mm 1 mps 738 mmHg 74%
16:00 +30°C° 0.2 mm 1 mps 738 mmHg 80%
17:00 +28°C° 0.1 mm 1 mps 739 mmHg 84%
18:00 +27°C° 0.1 mm 1 mps 739 mmHg 89%
19:00 +25°C° 0.1 mm 1 mps 740 mmHg 93%
20:00 +25°C° 0 mm 1 mps 740 mmHg 93%
21:00 +24°C° 0 mm 1 mps 741 mmHg 92%
22:00 +24°C° 0 mm 2 mps 741 mmHg 92%
23:00 +24°C° 0 mm 2 mps 741 mmHg 92%

3 December, Thursday

Time Temperature Precipitation Wind Pressure Humidity
00:00 +24°C° 0 mm 2 mps 740 mmHg 91%
01:00 +23°C° 0 mm 2 mps 740 mmHg 91%
02:00 +23°C° 0 mm 2 mps 740 mmHg 90%
03:00 +23°C° 0 mm 2 mps 740 mmHg 90%
04:00 +23°C° 0 mm 1 mps 740 mmHg 89%
05:00 +24°C° 0 mm 1 mps 740 mmHg 88%
06:00 +24°C° 0 mm 1 mps 741 mmHg 86%
07:00 +25°C° 0 mm 1 mps 741 mmHg 84%
08:00 +27°C° 0 mm 2 mps 741 mmHg 77%
09:00 +29°C° 0 mm 2 mps 742 mmHg 70%
10:00 +31°C° 0 mm 2 mps 742 mmHg 63%
11:00 +31°C° 0 mm 2 mps 741 mmHg 62%
12:00 +32°C° 0 mm 2 mps 740 mmHg 60%
13:00 +32°C° 0 mm 2 mps 739 mmHg 59%
14:00 +32°C° 0 mm 1 mps 739 mmHg 63%
15:00 +31°C° 0 mm 1 mps 738 mmHg 67%
16:00 +30°C° 0 mm 1 mps 738 mmHg 71%
17:00 +29°C° 0 mm 1 mps 738 mmHg 76%
18:00 +27°C° 0 mm 1 mps 739 mmHg 81%
19:00 +25°C° 0 mm 1 mps 739 mmHg 86%
20:00 +25°C° 0 mm 1 mps 740 mmHg 87%
21:00 +24°C° 0 mm 2 mps 740 mmHg 88%
22:00 +24°C° 0 mm 2 mps 741 mmHg 88%
23:00 +24°C° 0 mm 2 mps 741 mmHg 88%

4 December, Friday

Time Temperature Precipitation Wind Pressure Humidity
00:00 +24°C° 0 mm 1 mps 740 mmHg 88%
01:00 +23°C° 0 mm 1 mps 740 mmHg 88%
02:00 +23°C° 0 mm 1 mps 740 mmHg 87%
03:00 +23°C° 0 mm 1 mps 740 mmHg 87%
04:00 +23°C° 0 mm 1 mps 740 mmHg 86%
05:00 +24°C° 0 mm 1 mps 741 mmHg 84%
06:00 +24°C° 0 mm 1 mps 741 mmHg 83%
07:00 +25°C° 0 mm 1 mps 742 mmHg 81%
08:00 +27°C° 0 mm 1 mps 742 mmHg 74%
09:00 +29°C° 0 mm 1 mps 742 mmHg 66%
10:00 +31°C° 0 mm 1 mps 742 mmHg 59%
11:00 +31°C° 0 mm 1 mps 741 mmHg 58%
12:00 +32°C° 0 mm 1 mps 740 mmHg 57%
13:00 +32°C° 0 mm 1 mps 740 mmHg 55%
14:00 +32°C° 0 mm 1 mps 739 mmHg 61%
15:00 +31°C° 0 mm 1 mps 739 mmHg 66%
16:00 +30°C° 0 mm 1 mps 738 mmHg 71%
17:00 +29°C° 0 mm 1 mps 739 mmHg 76%
18:00 +27°C° 0 mm 1 mps 739 mmHg 81%
19:00 +23°C° 0 mm 0 mps 740 mmHg 86%
20:00 +25°C° 0 mm 1 mps 740 mmHg 88%
21:00 +25°C° 0 mm 1 mps 740 mmHg 89%
22:00 +24°C° 0 mm 1 mps 741 mmHg 90%
23:00 +24°C° 0 mm 1 mps 741 mmHg 90%
Show more